FW0954 Weather Reports


time (UTC)temp
C
wind
direction
speed
KPH
gust
KPH
rain 1hr
cm
rain 24hr
cm
rain mn
cm
humidity
%
barometer
mb
20260509004002 23 173 1.6 9.7 0.00 0.00 0.00 79 1008.4
20260509003502 23 183 1.6 8.0 0.00 0.00 0.00 79 1008.4
20260509003002 23 193 3.2 8.0 0.00 0.00 0.00 78 1008.4
20260509002501 23 192 1.6 8.0 0.00 0.00 0.00 78 1008.4
20260509001501 23 173 1.6 8.0 0.00 0.00 0.00 77 1008.5
20260509001002 23 183 3.2 8.0 0.00 0.00 0.00 77 1008.5
20260509000501 23 187 3.2 11.3 0.00 0.00 0.00 76 1008.6
20260508235502 23 179 1.6 4.8 0.00 0.00 0.00 75 1008.8
20260508235001 23 160 1.6 4.8 0.00 0.00 0.00 74 1008.8
20260508234002 25 137 0.0 1.6 0.00 0.00 0.00 73 1008.9
20260508233001 25 201 0.0 3.2 0.00 0.00 0.00 72 1008.9
20260508232502 25 192 1.6 6.4 0.00 0.00 0.00 72 1008.9
20260508232002 25 185 1.6 6.4 0.00 0.00 0.00 72 1008.8
20260508231502 25 195 1.6 8.0 0.00 0.00 0.00 73 1008.8
20260508225501 24 173 3.2 8.0 0.00 0.00 0.00 72 1009.0
20260508224501 24 188 4.8 12.9 0.00 0.00 0.00 72 1009.0
20260508224002 24 183 4.8 14.5 0.00 0.00 0.00 73 1009.0
20260508223501 24 179 4.8 14.5 0.00 0.00 0.00 72 1009.0
20260508223002 24 184 4.8 14.5 0.00 0.00 0.00 73 1009.0
20260508222501 23 193 4.8 14.5 0.00 0.00 0.00 73 1009.0
20260508222002 24 208 3.2 11.3 0.00 0.00 0.00 72 1009.0
20260508221502 24 218 3.2 9.7 0.00 0.00 0.00 72 1009.0
20260508221002 24 202 4.8 14.5 0.00 0.00 0.00 72 1009.0
20260508220501 25 195 4.8 14.5 0.00 0.00 0.00 71 1008.9
20260508220002 25 191 4.8 14.5 0.00 0.00 0.00 72 1008.9
20260508215501 24 184 6.4 14.5 0.00 0.00 0.00 73 1008.8
20260508214502 24 175 3.2 11.3 0.00 0.00 0.00 74 1008.8
20260508214001 23 170 4.8 11.3 0.00 0.00 0.00 75 1008.6
20260508213502 23 171 4.8 11.3 0.00 0.00 0.00 79 1008.7
20260508213002 22 166 1.6 9.7 0.00 0.00 0.00 81 1008.8
20260508212002 22 114 1.6 3.2 0.00 0.00 0.00 82 1008.6
20260508211502 22 139 1.6 6.4 0.00 0.00 0.00 79 1009.6
20260508210502 23 183 3.2 12.9 0.00 0.00 0.00 77 1010.2
20260508210002 23 196 1.6 4.8 0.00 0.00 0.00 75 1009.9
20260508205501 23 212 1.6 6.4 0.00 0.00 0.00 74 1010.5
20260508204502 23 202 1.6 4.8 0.00 0.00 0.00 72 1010.8
20260508203502 23 218 1.6 6.4 0.00 0.00 0.00 71 1010.8
20260508203002 23 216 1.6 6.4 0.00 0.00 0.00 71 1010.9
20260508202502 24 223 1.6 6.4 0.00 0.00 0.00 71 1010.8
20260508202002 24 214 1.6 6.4 0.00 0.00 0.00 70 1010.8
20260508201502 24 211 1.6 8.0 0.00 0.00 0.00 69 1010.7
20260508201002 24 204 3.2 8.0 0.00 0.00 0.00 69 1010.8
20260508200002 25 191 3.2 11.3 0.00 0.00 0.00 69 1010.7
20260508195502 25 194 3.2 9.7 0.00 0.00 0.00 69 1010.7
20260508195002 25 179 3.2 11.3 0.00 0.00 0.00 70 1010.7
20260508194502 25 184 4.8 11.3 0.00 0.00 0.00 69 1010.9
20260508194003 25 197 4.8 17.7 0.00 0.00 0.00 68 1010.9
20260508193003 24 177 6.4 14.5 0.00 0.00 0.00 69 1011.0
20260508192502 25 183 6.4 12.9 0.00 0.00 0.00 68 1011.1
20260508192002 25 193 4.8 16.1 0.00 0.00 0.00 68 1011.1
20260508191503 25 179 4.8 16.1 0.00 0.00 0.00 68 1011.2
20260508191002 25 171 4.8 12.9 0.00 0.00 0.00 68 1011.3
20260508190002 25 177 6.4 17.7 0.00 0.00 0.00 66 1011.2
20260508185002 26 178 3.2 11.3 0.00 0.00 0.00 65 1011.2
20260508184502 26 178 3.2 8.0 0.00 0.00 0.00 65 1011.4
20260508184002 26 181 3.2 11.3 0.00 0.00 0.00 65 1011.4
20260508183502 26 185 3.2 11.3 0.00 0.00 0.00 65 1011.4
20260508183002 27 200 3.2 9.7 0.00 0.00 0.00 65 1011.4
20260508182002 26 186 4.8 11.3 0.00 0.00 0.00 64 1011.7
20260508181503 27 196 3.2 11.3 0.00 0.00 0.00 62 1011.7
20260508181002 27 202 3.2 11.3 0.00 0.00 0.00 63 1011.8
20260508180502 27 199 3.2 14.5 0.00 0.00 0.00 62 1011.8
20260508175502 26 221 3.2 8.0 0.00 0.00 0.00 63 1012.0
20260508175002 26 194 3.2 9.7 0.00 0.00 0.00 62 1012.1
20260508174502 26 189 3.2 9.7 0.00 0.00 0.00 63 1012.2
20260508174002 26 174 3.2 9.7 0.00 0.00 0.00 63 1012.4
20260508173502 26 154 1.6 9.7 0.00 0.00 0.00 65 1012.4
20260508173002 26 154 1.6 8.0 0.00 0.00 0.00 64 1012.3
20260508172503 26 184 3.2 8.0 0.00 0.00 0.00 66 1012.5
20260508171502 25 174 1.6 9.7 0.00 0.00 0.00 65 1012.7
20260508171002 25 190 3.2 8.0 0.00 0.00 0.00 65 1012.9
20260508170002 25 194 3.2 11.3 0.00 0.00 0.00 65 1013.2
20260508165502 24 199 3.2 9.7 0.00 0.00 0.00 67 1013.4
20260508165002 23 210 3.2 9.7 0.00 0.00 0.00 68 1013.5
20260508164002 23 181 4.8 11.3 0.00 0.00 0.00 68 1013.7
20260508163502 23 167 4.8 11.3 0.00 0.00 0.00 69 1013.7
20260508163003 23 174 3.2 14.5 0.00 0.00 0.00 68 1013.7
20260508162502 23 195 3.2 14.5 0.00 0.00 0.00 69 1013.8
20260508162002 22 193 3.2 9.7 0.00 0.00 0.00 69 1013.8
20260508161502 22 173 3.2 8.0 0.00 0.00 0.00 70 1013.9
20260508161002 22 176 3.2 9.7 0.00 0.00 0.00 68 1014.0
20260508160502 22 189 3.2 12.9 0.00 0.00 0.00 69 1013.8
20260508160002 22 184 4.8 12.9 0.00 0.00 0.00 69 1013.9
20260508155503 22 174 3.2 16.1 0.00 0.00 0.00 70 1014.0
20260508155003 22 179 3.2 16.1 0.00 0.00 0.00 71 1014.2
20260508154002 21 185 4.8 12.9 0.00 0.00 0.00 71 1014.3
20260508152503 21 199 3.2 9.7 0.00 0.00 0.00 71 1014.5
20260508152002 21 189 3.2 11.3 0.00 0.00 0.00 70 1014.5
20260508151503 21 189 3.2 11.3 0.00 0.00 0.00 70 1014.4
20260508151002 21 194 3.2 11.3 0.00 0.00 0.00 70 1014.5
20260508150503 21 179 3.2 11.3 0.00 0.00 0.00 70 1014.5
20260508150003 21 164 1.6 8.0 0.00 0.00 0.00 72 1014.5
20260508145003 21 184 1.6 9.7 0.00 0.00 0.00 72 1014.3
20260508144502 20 183 1.6 9.7 0.00 0.00 0.00 72 1014.2
20260508143502 20 181 3.2 9.7 0.00 0.00 0.00 74 1014.2
20260508143003 20 185 3.2 11.3 0.00 0.00 0.00 73 1014.4
20260508142502 20 172 1.6 11.3 0.00 0.00 0.00 73 1014.5
20260508142003 20 166 1.6 8.0 0.00 0.00 0.00 75 1014.5
20260508141503 20 162 3.2 8.0 0.00 0.00 0.00 75 1014.6
20260508141003 20 161 3.2 8.0 0.00 0.00 0.00 76 1014.8
20260508140503 20 166 3.2 9.7 0.00 0.00 0.00 76 1014.7
20260508140003 19 160 1.6 9.7 0.00 0.00 0.00 76 1014.8
20260508135502 19 144 1.6 4.8 0.00 0.00 0.00 78 1014.8
20260508135003 18 151 1.6 8.0 0.00 0.00 0.00 79 1014.6
20260508134502 18 149 1.6 8.0 0.00 0.00 0.00 80 1014.5
20260508134003 18 152 0.0 6.4 0.00 0.00 0.00 81 1014.4
20260508133503 17 172 1.6 6.4 0.00 0.00 0.00 83 1014.5
20260508132502 17 155 1.6 4.8 0.00 0.00 0.00 84 1014.6
20260508132003 17 170 1.6 4.8 0.00 0.00 0.00 85 1014.7
20260508131503 16 174 1.6 4.8 0.00 0.00 0.00 86 1014.7
20260508131002 16 169 0.0 4.8 0.00 0.00 0.00 89 1014.9
20260508130503 16 0 0.0 0.0 0.00 0.00 0.00 91 1014.9
20260508130003 16 0 0.0 0.0 0.00 0.00 0.00 92 1015.1
20260508125503 16 0 0.0 0.0 0.00 0.00 0.00 91 1015.0
20260508125002 16 0 0.0 0.0 0.00 0.00 0.00 91 1014.9
20260508124502 15 0 0.0 0.0 0.00 0.00 0.00 91 1015.0
20260508123502 15 208 0.0 1.6 0.00 0.00 0.00 91 1014.8
20260508123003 15 208 0.0 1.6 0.00 0.00 0.00 92 1014.6
20260508122502 15 208 0.0 1.6 0.00 0.00 0.00 92 1014.6
20260508121503 15 208 0.0 1.6 0.00 0.00 0.00 92 1014.7
20260508121002 15 0 0.0 0.0 0.00 0.00 0.00 92 1014.9
20260508120503 15 0 0.0 0.0 0.00 0.00 0.00 92 1014.9
20260508120003 15 0 0.0 0.0 0.00 0.00 0.00 92 1014.7
20260508115503 15 0 0.0 0.0 0.00 0.00 0.00 92 1014.8
20260508114502 15 0 0.0 0.0 0.00 0.00 0.00 91 1014.9
20260508114003 15 0 0.0 0.0 0.00 0.00 0.00 91 1014.7
20260508113502 15 0 0.0 0.0 0.00 0.00 0.00 91 1015.0
20260508113002 15 0 0.0 0.0 0.00 0.00 0.00 91 1015.1
20260508112503 15 0 0.0 0.0 0.00 0.00 0.00 91 1015.1
20260508111503 15 0 0.0 0.0 0.00 0.00 0.00 92 1015.5
20260508111003 15 0 0.0 0.0 0.00 0.00 0.00 92 1015.7
20260508110503 15 0 0.0 0.0 0.00 0.00 0.00 92 1015.6
20260508110003 15 0 0.0 0.0 0.00 0.00 0.00 91 1015.2
20260508105504 15 0 0.0 0.0 0.00 0.00 0.00 91 1014.8
20260508105003 15 0 0.0 0.0 0.00 0.00 0.00 90 1014.6
20260508104002 15 190 0.0 3.2 0.00 0.00 0.00 90 1014.3
20260508103003 15 177 0.0 4.8 0.00 0.00 0.00 90 1013.8
20260508102503 15 178 1.6 4.8 0.00 0.00 0.00 91 1013.8
20260508101503 15 181 0.0 1.6 0.00 0.00 0.00 90 1013.8
20260508101003 15 0 0.0 0.0 0.00 0.00 0.00 90 1013.9
20260508100503 15 181 0.0 1.6 0.00 0.00 0.00 90 1014.2
20260508100003 15 179 0.0 3.2 0.00 0.00 0.00 89 1014.1
20260508095503 15 179 0.0 3.2 0.00 0.00 0.00 89 1013.9
20260508095003 15 181 0.0 1.6 0.00 0.00 0.00 89 1014.1
20260508094503 16 0 0.0 0.0 0.00 0.00 0.00 88 1014.1
20260508094004 16 181 0.0 1.6 0.00 0.00 0.00 88 1014.2
20260508093503 16 182 0.0 3.2 0.00 0.00 0.00 88 1014.1
20260508093003 16 178 0.0 3.2 0.00 0.00 0.00 89 1014.1
20260508092503 16 168 0.0 1.6 0.00 0.00 0.00 89 1014.0
20260508092003 16 171 0.0 3.2 0.00 0.00 0.00 89 1014.1
20260508091003 16 173 0.0 6.4 0.00 0.00 0.00 90 1014.2
20260508090003 16 145 0.0 3.2 0.00 0.00 0.00 90 1014.0
20260508085503 16 0 0.0 0.0 0.00 0.00 0.00 90 1014.0
20260508085003 15 0 0.0 0.0 0.00 0.00 0.00 89 1014.4
20260508084503 15 0 0.0 0.0 0.00 0.00 0.00 89 1014.6
20260508084003 15 0 0.0 0.0 0.00 0.00 0.00 89 1014.9
20260508083503 15 0 0.0 0.0 0.00 0.00 0.00 89 1015.0
20260508083003 15 0 0.0 0.0 0.00 0.00 0.00 89 1015.1
20260508082503 15 0 0.0 0.0 0.00 0.00 0.00 89 1015.3
20260508082003 16 0 0.0 0.0 0.00 0.00 0.00 89 1015.3
20260508081003 16 0 0.0 0.0 0.00 0.00 0.00 89 1015.4
20260508080502 16 0 0.0 0.0 0.00 0.00 0.00 89 1015.4
20260508080004 15 0 0.0 0.0 0.00 0.00 0.00 89 1015.6
20260508075503 15 0 0.0 0.0 0.00 0.00 0.00 90 1015.3
20260508075003 15 0 0.0 0.0 0.00 0.00 0.00 90 1015.3
20260508074503 15 0 0.0 0.0 0.00 0.00 0.00 89 1015.1
20260508074004 15 0 0.0 0.0 0.00 0.00 0.00 89 1015.1
20260508073503 15 0 0.0 0.0 0.00 0.00 0.00 89 1014.9
20260508073003 15 0 0.0 0.0 0.00 0.00 0.00 89 1014.9
20260508072503 15 0 0.0 0.0 0.00 0.00 0.00 89 1015.0
20260508072003 15 0 0.0 0.0 0.00 0.00 0.00 89 1014.9
20260508071503 15 0 0.0 0.0 0.00 0.00 0.00 89 1015.0
20260508071003 15 0 0.0 0.0 0.00 0.00 0.00 89 1015.1
20260508070503 15 0 0.0 0.0 0.00 0.00 0.00 89 1015.2
20260508065503 15 0 0.0 0.0 0.00 0.00 0.00 89 1015.3
20260508065003 15 0 0.0 0.0 0.00 0.00 0.00 88 1015.4
20260508064003 15 0 0.0 0.0 0.00 0.00 0.00 88 1015.7
20260508063003 15 0 0.0 0.0 0.00 0.00 0.00 88 1015.8
20260508062503 15 0 0.0 0.0 0.00 0.00 0.00 88 1015.6
20260508062003 15 0 0.0 0.0 0.00 0.00 0.00 88 1015.7
20260508061503 15 0 0.0 0.0 0.00 0.00 0.00 88 1015.8
20260508061004 15 0 0.0 0.0 0.00 0.00 0.00 87 1015.7
20260508060503 15 0 0.0 0.0 0.00 0.00 0.00 87 1015.8
20260508060003 15 0 0.0 0.0 0.00 0.00 0.00 87 1015.8
20260508055504 15 0 0.0 0.0 0.00 0.00 0.00 87 1015.7
20260508054004 15 0 0.0 0.0 0.00 0.00 0.00 87 1015.7
20260508053004 15 0 0.0 0.0 0.00 0.00 0.00 87 1015.8
20260508052503 15 0 0.0 0.0 0.00 0.00 0.00 87 1015.8
20260508052003 15 0 0.0 0.0 0.00 0.00 0.00 86 1015.8
20260508051504 15 0 0.0 0.0 0.00 0.00 0.00 86 1015.7
20260508051003 15 0 0.0 0.0 0.00 0.00 0.00 86 1015.7
20260508050004 15 0 0.0 0.0 0.00 0.00 0.00 85 1015.8
20260508045503 15 0 0.0 0.0 0.00 0.00 0.00 85 1015.8
20260508045004 15 0 0.0 0.0 0.00 0.00 0.00 85 1016.0
20260508044501 15 0 0.0 0.0 0.00 0.00 0.00 85 1015.9
20260508044002 15 0 0.0 0.0 0.00 0.00 0.00 86 1015.9
20260508043501 15 0 0.0 0.0 0.00 0.00 0.00 84 1015.7
20260508042501 15 0 0.0 0.0 0.00 0.00 0.00 84 1015.7
20260508042001 15 0 0.0 0.0 0.00 0.00 0.00 83 1015.7
20260508041501 15 0 0.0 0.0 0.00 0.00 0.00 84 1015.7
20260508041001 15 0 0.0 0.0 0.00 0.00 0.00 84 1015.7
20260508040001 15 0 0.0 0.0 0.00 0.00 0.00 83 1015.5
20260508035002 16 0 0.0 0.0 0.00 0.00 0.00 82 1015.4
20260508033501 16 0 0.0 0.0 0.00 0.00 0.00 82 1015.4
20260508033002 16 0 0.0 0.0 0.00 0.00 0.00 83 1015.3
20260508032502 16 0 0.0 0.0 0.00 0.00 0.00 82 1015.3
20260508032001 16 0 0.0 0.0 0.00 0.00 0.00 82 1015.4
20260508031502 16 0 0.0 0.0 0.00 0.00 0.00 82 1015.4
20260508031001 16 0 0.0 0.0 0.00 0.00 0.00 81 1015.5
20260508030502 16 0 0.0 0.0 0.00 0.00 0.00 81 1015.4
20260508030001 16 0 0.0 0.0 0.00 0.00 0.00 80 1015.4
20260508025502 16 0 0.0 0.0 0.00 0.00 0.00 80 1015.4
20260508025001 16 0 0.0 0.0 0.00 0.00 0.00 80 1015.3
20260508024502 16 0 0.0 0.0 0.00 0.00 0.00 80 1015.3
20260508024001 16 0 0.0 0.0 0.00 0.00 0.00 79 1015.4
20260508022502 16 0 0.0 0.0 0.00 0.00 0.00 78 1015.2
20260508022003 16 0 0.0 0.0 0.00 0.00 0.00 77 1015.2
20260508021501 17 0 0.0 0.0 0.00 0.00 0.00 77 1015.1
20260508021002 17 0 0.0 0.0 0.00 0.00 0.00 77 1015.0
20260508020501 17 0 0.0 0.0 0.00 0.00 0.00 77 1014.8
20260508020002 17 0 0.0 0.0 0.00 0.00 0.00 77 1014.9
20260508015501 17 0 0.0 0.0 0.00 0.00 0.00 76 1014.9
20260508015002 17 0 0.0 0.0 0.00 0.00 0.00 76 1014.9
20260508014501 17 0 0.0 0.0 0.00 0.00 0.00 75 1015.0
20260508014001 17 0 0.0 0.0 0.00 0.00 0.00 75 1015.1
20260508013502 17 0 0.0 0.0 0.00 0.00 0.00 75 1015.1
20260508013001 18 0 0.0 0.0 0.00 0.00 0.00 75 1014.9
20260508012502 18 0 0.0 0.0 0.00 0.00 0.00 74 1015.1
20260508012001 18 0 0.0 0.0 0.00 0.00 0.00 74 1015.0
20260508011502 18 0 0.0 0.0 0.00 0.00 0.00 74 1014.9
20260508010502 18 0 0.0 0.0 0.00 0.00 0.00 73 1015.0
20260508010002 18 0 0.0 0.0 0.00 0.00 0.00 74 1014.9
20260508005502 18 0 0.0 0.0 0.00 0.00 0.00 74 1014.9
20260508005001 19 171 0.0 1.6 0.00 0.00 0.00 73 1014.8